Regional Weather Roundup
Issued by NWS

Home | Current Version | Previous Version | Graphics & Text | Print | Product List | Glossary On
Versions: 1 2 3 4 5 6 7 8 9 10 11 12 13 14 15 16 17 18 19 20 21 22 23 24 25 26 27 28 29 30 31 32 33 34 35 36 37 38 39 40 41 42 43 44 45 46 47 48 49 50
000
ASUS43 KBIS 291110
RWRND

NORTH DAKOTA REGIONAL WEATHER ROUNDUP
NATIONAL WEATHER SERVICE BISMARCK ND
600 AM CDT FRI JUL 29 2016

NOTE: "FAIR" INDICATES FEW OR NO CLOUDS BELOW 12,000 FEET WITH NO
SIGNIFICANT WEATHER AND/OR OBSTRUCTIONS TO VISIBILITY.


NDZ001>003-009>011-017-291200-
NORTHWEST NORTH DAKOTA

CITY           SKY/WX    TMP DP  RH WIND       PRES   REMARKS
WILLISTON      CLEAR     51  49  92 NE3       30.10S
MINOT          MOCLDY    56  52  86 CALM      30.10S
MINOT AFB      PTCLDY    49  47  92 SW5       30.09S
$$

NDZ018>021-031>035-040>046-291200-
SOUTHWEST NORTH DAKOTA

CITY           SKY/WX    TMP DP  RH WIND       PRES   REMARKS
BISMARCK       CLOUDY    63  61  93 CALM      30.09F
DICKINSON      FOG       54  54 100 SE3       30.10F VSB 3/4
GARRISON         N/A     59  59 100 CALM      30.09F
HETTINGER ARPT FOG       52  50  93 W3        30.13S VSB 1/4
$$

NDZ004>008-012>016-024-026-027-054-291200-
NORTHEAST NORTH DAKOTA

CITY           SKY/WX    TMP DP  RH WIND       PRES   REMARKS
GRAND FORKS    PTCLDY    51  49  92 W6        30.08F
GRND FRKS AFB  CLEAR     53  51  96 NW6       30.09S
DEVILS LAKE    CLEAR     56  54  93 CALM      30.11F
$$

NDZ022-023-025-028>030-036>039-047>053-291200-
SOUTHEAST NORTH DAKOTA

CITY           SKY/WX    TMP DP  RH WIND       PRES   REMARKS
FARGO          MOCLDY    59  55  87 CALM      30.08S
JAMESTOWN      CLOUDY    61  58  90 CALM      30.10S
$$




USA.gov is the U.S. government's official web portal to all federal, state and local government web resources and services.